Regional Weather Roundup
Issued by NWS Green Bay, WI

Home | Current Version | Previous Version | Graphics & Text | Print | Product List | Glossary Off
Versions: 1 2 3 4 5 6 7 8 9 10 11 12 13 14 15 16 17 18 19 20 21 22 23 24 25 26 27 28 29 30 31 32 33 34 35 36 37 38 39 40 41 42 43 44 45 46 47 48 49 50

000
ASUS43 KGRB 200759
RWRGRB

NORTH-CENTRAL AND NORTHEAST WISCONSIN REGIONAL WEATHER ROUNDUP
NATIONAL WEATHER SERVICE GREEN BAY WI
300 AM CDT SUN APR 20 2014

WIZ005-009-010>012-018-019-200900-
NORTH CENTRAL WISCONSIN

CITY           SKY/WX    TMP DP  RH WIND       PRES   REMARKS
IRONWOOD       CLOUDY    50  37  62 SW7       29.98S
MANITOWISH WTR NOT AVBL
ARBOR VITAE    NOT AVBL
EAGLE RIVER    NOT AVBL
LAND O LAKES   NOT AVBL
RHINELANDER    CLOUDY    47  37  68 S6        30.07S
PHILLIPS       NOT AVBL
ANTIGO         NOT AVBL
TOMAHAWK       NOT AVBL
MERRILL        NOT AVBL
$$

WIZ013-073-200900-
NORTHEAST WISCONSIN

CITY           SKY/WX    TMP DP  RH WIND       PRES   REMARKS
IRON MOUNTAIN  LGT RAIN  40  37  89 S7        30.10S
MARINETTE      CLOUDY    37  34  87 SE7       30.15F
$$

WIZ017-030-035>037-045-200900-
CENTRAL WISCONSIN

CITY           SKY/WX    TMP DP  RH WIND       PRES   REMARKS
MEDFORD        NOT AVBL
WAUSAU         LGT RAIN  50  42  74 SE8       30.07S
MOSINEE        NOT AVBL
MARSHFIELD     LGT RAIN  54  41  61 S12       30.06F
WISC RAPIDS    CLOUDY    57  35  43 S9        30.09S
STEVENS POINT  NOT AVBL
WAUPACA        NOT AVBL
SHAWANO        NOT AVBL
CLINTONVILLE   NOT AVBL
$$

WIZ038-039-048-051-200900-
FOX VALLEY

CITY           SKY/WX    TMP DP  RH WIND       PRES   REMARKS
NWS GREEN BAY  CLOUDY    51  39  63 S10       30.14S
APPLETON       NOT AVBL
OSHKOSH        CLOUDY    54  37  52 S16       30.12F
FOND DU LAC    CLOUDY    53  37  54 S14       30.14F
$$

WIZ022-050-052-200900-
EAST CENTRAL WISCONSIN

CITY           SKY/WX    TMP DP  RH WIND       PRES   REMARKS
STURGEON BAY   CLOUDY    46  34  61 S16       30.17R
MANITOWOC      NOT AVBL
SHEBOYGAN      PTCLDY    46  35  65 S12       30.18F
$$

LMZ563-521-522-541>543-200900-
LAKESHORE

STATION/POSITION TIME  TEMP    WIND        PRES    VSBY  WAVE
                       AIR SEA DIR/SP/G                  HT/PER
                 (UTC) (F)     (DEG/KT/KT) (MB)    (MI)  (FT/S)
SHEBOYGAN LKSHOR 0700   44     180/ 20/ 21 1023.1F
KEWAUNEE LKSHORE 0700   46     180/ 20/ 24 1022.3F
NORTHPORT PIER   0700   36     140/  6/  7 1022.4F
SISTER BAY LKSHO 0700   41     170/  5/  5   N/A
MENOMINEE LKSHOR 0700   35      60/  3/  4 1022.1F
$$



USA.gov is the U.S. government's official web portal to all federal, state and local government web resources and services.